Date String (YYYY-MM-DD hh:mm:ss) UTC,Instrument flags,Ambient pressure (hPa),Sample flow (lpm),Bypass flow (lpm),Sample temperature (°C),Ambient temperature (°C),ASC tube jacket temperature (°C),LED temperature (°C),Box temperature (°C),Sample RH (%),Mass concentration (μg/m³),Mass concentration (μg/m³)
DateTimeUTC,F1_M11,P_M11,Q1_M11,Q2_M11,T1_M11,T2_M11,T3_M11,T4_M11,T5_M11,U1_M11,X0_M11,X2_M11
2021-08-18 04:00:00,,0822.6,5.01,0.00,29.0,27.2,00.0,38.2,30.8,20.4,0020.63,0015.37
2021-08-18 04:01:00,,0822.6,4.99,0.00,29.1,27.5,00.0,38.2,30.9,20.6,0020.58,0015.38
2021-08-18 04:02:00,,0822.6,5.01,0.00,29.1,27.7,00.0,38.2,31.0,20.9,0020.49,0015.36
2021-08-18 04:03:00,,0822.6,4.99,0.00,29.1,27.9,00.0,38.2,31.0,20.6,0021.05,0015.35
2021-08-18 04:04:00,,0822.6,5.00,0.00,29.2,28.1,00.0,38.2,31.1,20.6,0020.95,0015.32
2021-08-18 04:05:00,,0822.6,4.99,0.00,29.2,28.2,00.0,38.2,31.1,20.5,0020.73,0015.26
2021-08-18 04:06:00,,0822.6,5.00,0.00,29.3,28.3,00.0,38.3,31.2,20.4,0020.75,0015.26
2021-08-18 04:07:00,,0822.6,5.00,0.00,29.3,28.4,00.0,38.3,31.2,20.3,0021.24,0015.23
2021-08-18 04:08:00,,0822.6,5.00,0.00,29.4,28.5,00.0,38.3,31.3,20.2,0021.75,0015.24
2021-08-18 04:09:00,,0822.6,4.98,0.00,29.4,28.6,00.0,38.3,31.3,20.1,0021.70,0015.23
2021-08-18 04:10:00,,0822.6,5.02,0.00,29.5,28.5,00.0,38.4,31.3,20.0,0021.23,0015.25
2021-08-18 04:11:00,,0822.6,4.99,0.00,29.4,26.8,00.0,38.4,30.9,20.1,0021.69,0015.31
2021-08-18 04:12:00,,0822.6,5.00,0.00,29.3,26.1,00.0,38.4,30.7,20.1,0022.02,0015.34
2021-08-18 04:13:00,,0822.6,5.01,0.00,29.2,26.4,00.0,38.3,30.7,20.2,0022.04,0015.37
2021-08-18 04:14:00,,0822.6,5.00,0.00,29.2,26.7,00.0,38.3,30.8,20.4,0021.74,0015.35
2021-08-18 04:15:00,,0822.7,5.00,0.00,29.2,27.1,00.0,38.3,30.9,20.4,0021.72,0015.37
2021-08-18 04:16:00,,0822.7,4.99,0.00,29.2,27.4,00.0,38.3,30.9,20.3,0021.90,0015.41
2021-08-18 04:17:00,,0822.6,5.01,0.00,29.2,27.7,00.0,38.3,31.0,20.2,0022.50,0015.45
2021-08-18 04:18:00,,0822.6,4.99,0.00,29.3,27.9,00.0,38.3,31.1,20.3,0022.06,0015.46
2021-08-18 04:19:00,,0822.6,5.01,0.00,29.3,28.1,00.0,38.3,31.1,20.3,0021.76,0015.53
2021-08-18 04:20:00,,0822.7,4.99,0.00,29.3,28.2,00.0,38.3,31.2,20.3,0022.23,0015.67
2021-08-18 04:21:00,,0822.7,5.02,0.00,29.4,28.3,00.0,38.4,31.2,20.4,0022.51,0015.78
2021-08-18 04:22:00,,0822.7,4.99,0.00,29.4,28.5,00.0,38.4,31.3,20.4,0022.55,0015.87
2021-08-18 04:23:00,,0822.8,5.00,0.00,29.5,28.5,00.0,38.4,31.4,20.4,0022.59,0015.92
2021-08-18 04:24:00,,0822.8,5.00,0.00,29.5,28.3,00.0,38.4,31.3,20.4,0023.35,0016.00
2021-08-18 04:25:00,,0822.8,5.01,0.00,29.4,26.6,00.0,38.4,30.9,21.1,0023.55,0016.10
2021-08-18 04:26:00,,0822.9,5.00,0.00,29.3,26.1,00.0,38.4,30.8,21.8,0023.71,0016.08
2021-08-18 04:27:00,,0822.9,5.00,0.00,29.3,26.4,00.0,38.4,30.8,22.0,0023.78,0016.08
2021-08-18 04:28:00,,0823.0,5.00,0.00,29.2,26.8,00.0,38.3,30.9,21.7,0023.56,0016.11
2021-08-18 04:29:00,,0823.0,5.00,0.00,29.2,27.2,00.0,38.3,30.9,21.7,0024.39,0016.19
2021-08-18 04:30:00,,0822.9,4.98,0.00,29.2,27.5,00.0,38.3,31.0,22.4,0024.13,0016.12
2021-08-18 04:31:00,,0822.9,5.01,0.00,29.3,27.7,00.0,38.3,31.1,22.6,0023.50,0015.96
2021-08-18 04:32:00,,0823.0,4.99,0.00,29.3,28.0,00.0,38.3,31.1,22.6,0023.17,0015.85
2021-08-18 04:33:00,,0823.0,5.01,0.00,29.3,28.1,00.0,38.3,31.2,22.8,0022.86,0015.76
2021-08-18 04:34:00,,0822.9,5.00,0.00,29.4,28.3,00.0,38.4,31.3,23.0,0022.58,0015.69
2021-08-18 04:35:00,,0822.9,4.99,0.00,29.4,28.4,00.0,38.4,31.3,23.0,0021.87,0015.60
2021-08-18 04:36:00,,0822.9,5.00,0.00,29.5,28.5,00.0,38.4,31.4,22.7,0021.42,0015.49
2021-08-18 04:37:00,,0822.9,5.00,0.00,29.5,28.6,00.0,38.4,31.4,22.5,0021.10,0015.51
2021-08-18 04:38:00,,0822.9,5.00,0.00,29.6,28.7,00.0,38.5,31.4,22.0,0021.66,0015.52
2021-08-18 04:39:00,,0823.0,5.00,0.00,29.6,28.4,00.0,38.5,31.4,21.6,0021.72,0015.52
2021-08-18 04:40:00,,0822.9,5.01,0.00,29.5,26.6,00.0,38.5,30.9,21.2,0020.88,0015.51
2021-08-18 04:41:00,,0823.1,5.00,0.00,29.4,26.2,00.0,38.5,30.8,21.6,0020.87,0015.54
2021-08-18 04:42:00,,0823.0,5.00,0.00,29.3,26.5,00.0,38.4,30.8,21.4,0021.48,0015.63
2021-08-18 04:43:00,,0823.1,5.00,0.00,29.3,26.9,00.0,38.4,30.9,21.4,0021.83,0015.69
2021-08-18 04:44:00,,0823.1,5.00,0.00,29.3,27.3,00.0,38.4,31.0,21.6,0021.88,0015.69
2021-08-18 04:45:00,,0823.1,4.99,0.00,29.3,27.6,00.0,38.4,31.1,21.7,0022.01,0015.71
2021-08-18 04:46:00,,0823.1,5.01,0.00,29.3,27.8,00.0,38.4,31.2,22.2,0022.08,0015.72
2021-08-18 04:47:00,,0823.1,4.99,0.00,29.4,28.0,00.0,38.4,31.2,22.8,0021.96,0015.67
2021-08-18 04:48:00,,0823.1,5.00,0.00,29.4,28.2,00.0,38.4,31.3,22.9,0021.89,0015.57
2021-08-18 04:49:00,,0823.1,4.99,0.00,29.4,28.4,00.0,38.4,31.3,22.9,0020.96,0015.46
2021-08-18 04:50:00,,0823.1,4.99,0.00,29.5,28.5,00.0,38.5,31.4,22.7,0020.58,0015.33
2021-08-18 04:51:00,,0823.1,5.01,0.00,29.5,28.6,00.0,38.5,31.4,22.8,0020.31,0015.14
2021-08-18 04:52:00,,0823.0,4.99,0.00,29.6,28.7,00.0,38.5,31.5,22.8,0021.01,0015.05
2021-08-18 04:53:00,,0823.1,5.00,0.00,29.6,28.2,00.0,38.5,31.3,22.6,0020.46,0014.93
2021-08-18 04:54:00,,0823.0,5.00,0.00,29.4,26.5,00.0,38.5,30.8,22.8,0020.17,0014.85
2021-08-18 04:55:00,,0823.0,5.00,0.00,29.3,26.3,00.0,38.5,30.8,23.0,0019.97,0014.79
2021-08-18 04:56:00,,0823.0,5.01,0.00,29.3,26.6,00.0,38.5,30.9,23.1,0019.73,0014.69
2021-08-18 04:57:00,,0823.0,5.00,0.00,29.3,27.0,00.0,38.4,30.9,23.1,0019.59,0014.64
2021-08-18 04:58:00,,0823.1,4.99,0.00,29.3,27.3,00.0,38.4,31.0,23.1,0019.65,0014.66
2021-08-18 04:59:00,,0823.1,5.01,0.00,29.3,27.6,00.0,38.4,31.1,22.8,0019.52,0014.65
